Location: Unspecified
(0.0000°N, 0.0000°E)
Time: 18:51:29
(UTC+00:00)

deb Briz - Pass Details

Date: 22 February 2026
Orbit: 1683 x 2323 km, 64.7° (Epoch: 11 March)

Event Time Altitude Azimuth Distance (km) Brightness Sun altitude
Rises 04:36:24 0° 358° (N) 5,272 ? -23.9°
Reaches altitude 10° 04:40:20 10° 9° (N) 4,189 ? -22.9°
Maximum altitude 04:49:07 31° 67° (ENE) 2,716 ? -20.8°
Drops below altitude 10° 04:57:22 10° 125° (SE) 3,955 ? -18.7°
Sets 05:00:53 0° 135° (SE) 4,937 ? -17.9°
